This is the latest recevied weather packets stored in our database for station/object WX1NWA. If no packets are shown the sender has not sent any weather packets the latest 10 day(s).
| Time | Temp. | Humidity | Pressure | Rain* | Wind** | Luminosity | Snow |
|---|---|---|---|---|---|---|---|
| 1777988018 | 14.44° C | 99% | 1009.2 hPa | 0 mm | - | 133 W/m² | - |
| 1777987713 | 13.89° C | 99% | 1009.3 hPa | 0 mm | - | 104 W/m² | - |
| 1777987411 | 13.89° C | 99% | 1009.1 hPa | 0 mm | - | 69 W/m² | - |
| 1777987108 | 13.89° C | 99% | 1009.6 hPa | 0 mm | - | 65 W/m² | - |
| 1777986805 | 13.89° C | 99% | 1009.5 hPa | 0 mm | - | 59 W/m² | - |
| 1777986503 | 13.89° C | 99% | 1009.6 hPa | 0 mm | - | 71 W/m² | - |
| 1777986201 | 13.89° C | 99% | 1009.6 hPa | 0 mm | - | 58 W/m² | - |
| 1777985898 | 13.89° C | 99% | 1009.7 hPa | 0 mm | - | 47 W/m² | - |
| 1777985595 | 13.89° C | 99% | 1009.6 hPa | 0 mm | - | 35 W/m² | - |
| 1777985291 | 13.89° C | 99% | 1009.7 hPa | 0 mm | - | 18 W/m² | - |
| 1777984988 | 13.89° C | 99% | 1009.6 hPa | 0 mm | - | 13 W/m² | - |
| 1777984684 | 13.89° C | 99% | 1009.7 hPa | 0 mm | - | 15 W/m² | - |
| 1777984381 | 13.89° C | 99% | 1009.8 hPa | 0 mm | - | 8 W/m² | - |
| 1777984077 | 13.89° C | 99% | 1009.6 hPa | 0 mm | - | 9 W/m² | - |
| 1777983775 | 13.89° C | 99% | 1009.6 hPa | 0 mm | - | 3 W/m² | - |
| 1777983471 | 13.89° C | 99% | 1009.8 hPa | 0 mm | - | 3 W/m² | - |
| 1777983168 | 13.89° C | 99% | 1009.5 hPa | 0 mm | - | 2 W/m² | - |
| 1777982864 | 13.89° C | 99% | 1009.3 hPa | 0 mm | - | 1 W/m² | - |
| 1777982560 | 13.89° C | 99% | 1009.6 hPa | 0 mm | - | 0 W/m² | - |
| 1777982259 | 13.89° C | 99% | 1009.9 hPa | 0 mm | - | 1 W/m² | - |
| 1777981957 | 13.89° C | 99% | 1009.9 hPa | 0 mm | - | 4 W/m² | - |
| 1777981654 | 13.89° C | 99% | 1009.9 hPa | 0 mm | - | 3 W/m² | - |
| 1777981350 | 13.89° C | 99% | 1010 hPa | 0 mm | - | 1 W/m² | - |
| 1777981047 | 13.89° C | 99% | 1009.9 hPa | 0 mm | - | 4 W/m² | - |
| 1777980743 | 13.89° C | 99% | 1010 hPa | 0 mm | - | 0 W/m² | - |
* Rain latest hour (hover to see other rain measurements)
** Current wind speed in m/s (hover to see current wind gust speed)